カタログに戻る

STARLINK-38007

運用中通信SSO
NORAD 69723·PAYLOAD·🇺🇸 United States

打ち上げ Jun 28, 2026 から Vandenberg Space Force Base

Loading…

次のパス (今後24時間)

TLE

最新Source: CelesTrak SupGP

元期: Sep 14, 2026, 23:09 UTC

1 69723C 26147V   26257.96506944  .00051241  00000+0  15908-2 0  2576
2 69723  97.2836 294.4527 0001005  91.0028  88.1293 15.33410102    15

AllMySatでSTARLINK-38007をリアルタイム追跡

Download on the App Store